This demonstration page uses our WeatherBlox Daily Observations layout. Learn more.

Left ArrowRight Arrow

34.74481, -87.66753

Hourly Observations for December 5, 2017

Temp ( °F °C ) Dew Point ( °F °C ) Humidity (%) Winds ( mph kmh ) Pressure ( in mb ) Visibility ( mi km ) Precip ( " mm )
12:53 am 00:53 Cloudy 62 16.7 56 13.3 80 80 S 16 26 30.06 1018 10 16 0.00 0.00
1:53 am 01:53 Cloudy 62 16.7 57 13.9 84 84 S 10 17 30.06 1018 10 16 0.00 0.00
2:26 am 02:26 Cloudy 62 16.7 57 13.9 84 84 S 12 19 30.03 1017 10 16 0.00 0.00
2:53 am 02:53 Cloudy 62 16.7 57 13.9 84 84 S 12 19 30.04 1017 10 16 0.00 0.00
3:53 am 03:53 Cloudy with Light Rain 63 17.2 59 15 87 87 S 16 26 30.03 1017 10 16 0.00 0.03
4:07 am 04:07 Cloudy with Rain 63 17.2 59 15 87 87 S 14 22 30.00 1016 10 16 0.01 0.25
4:22 am 04:22 Cloudy with Rain 63 17.2 59 15 87 87 S 16 26 30.00 1016 10 16 0.02 0.51
4:53 am 04:53 Cloudy 63 17.2 60 15.6 90 90 S 13 20 30.02 1017 10 16 0.03 0.76
5:02 am 05:02 Cloudy with Rain 63 17.2 60 15.6 90 90 SSW 13 20 30.00 1016 10 16 0.01 0.25
5:18 am 05:18 Cloudy with Light Rain 63 17.2 60 15.6 90 90 S 12 19 30.00 1016 10 16 0.02 0.51
5:35 am 05:35 Cloudy with Light Rain 64 17.8 60 15.6 87 87 SSW 8 13 30.00 1016 10 16 0.02 0.51
5:53 am 05:53 Cloudy with Heavy Rain 63 17.2 59 15 87 87 NW 15 24 30.06 1018 10 16 0.03 0.76
6:11 am 06:11 Cloudy with Heavy Rain 60 15.6 57 13.9 90 90 NW 10 17 30.09 1019 10 16 0.02 0.51
6:46 am 06:46 Cloudy with Heavy Rain 59 15 57 13.9 93 93 Calm 30.06 1018 10 16 0.05 1.27
6:53 am 06:53 Cloudy with Heavy Rain 59 15 57 13.9 93 93 NNE 3 6 30.06 1018 10 16 0.06 1.52
7:53 am 07:53 Cloudy with Rain 59 15 57 13.9 93 93 S 3 6 30.08 1019 10 16 0.00 0.00
8:53 am 08:53 Cloudy with Rain 60 15.6 58 14.4 93 93 Calm 30.08 1019 10 16 0.07 1.78
9:53 am 09:53 Cloudy with Rain 60 15.6 58 14.4 93 93 S 5 7 30.08 1019 10 16 0.10 2.54
10:19 am 10:19 Cloudy with Rain 60 15.6 58 14.4 93 93 Calm 30.09 1019 10 16 0.04 1.02
10:30 am 10:30 Cloudy with Rain 60 15.6 58 14.4 93 93 W 5 7 30.09 1019 10 16 0.06 1.52
10:53 am 10:53 Cloudy with Heavy Rain 60 15.6 58 14.4 93 93 SW 6 9 30.09 1019 10 16 0.09 2.29
11:22 am 11:22 Cloudy with Rain 60 15.6 58 14.4 93 93 WSW 5 7 30.09 1019 10 16 0.05 1.27
11:53 am 11:53 Cloudy with Rain 60 15.6 58 14.4 93 93 W 10 17 30.09 1019 10 16 0.10 2.54
12:53 pm 12:53 Cloudy with Light Rain 53 11.7 49 9.4 86 86 NW 12 19 30.11 1020 10 16 0.10 2.54
1:17 pm 13:17 Cloudy with Light Rain 52 11.1 48 8.9 86 86 NW 9 15 30.12 1020 10 16 0.04 1.02
1:53 pm 13:53 Cloudy with Rain 50 10 46 7.8 86 86 NW 10 17 30.13 1020 10 16 0.09 2.29
2:15 pm 14:15 Cloudy with Light Rain 50 10 46 7.8 86 86 NNW 9 15 30.15 1021 10 16 0.03 0.76
2:53 pm 14:53 Cloudy with Light Rain 48 8.9 44 6.7 86 86 NW 10 17 30.17 1022 10 16 0.09 2.29
3:16 pm 15:16 Cloudy 48 8.9 44 6.7 86 86 NW 8 13 30.18 1022 10 16 0.03 0.76
3:53 pm 15:53 Cloudy 48 8.9 43 6.1 83 83 NW 6 9 30.18 1022 10 16 0.08 2.03
4:53 pm 16:53 Clear 47 8.3 39 3.9 74 74 NW 7 11 30.19 1022 10 16 0.01 0.25
5:53 pm 17:53 Clear 45 7.2 35 1.7 68 68 NNW 8 13 30.22 1023 10 16 0.00 0.00
6:53 pm 18:53 Clear 45 7.2 34 1.1 66 66 NNW 7 11 30.23 1024 10 16 0.00 0.00
7:53 pm 19:53 Clear 44 6.7 32 0 63 63 N 9 15 30.25 1024 10 16 0.00 0.00
8:53 pm 20:53 Clear 43 6.1 33 0.6 68 68 NNW 3 6 30.26 1025 10 16 0.00 0.00
9:53 pm 21:53 Clear 42 5.6 29 -1.7 60 60 NNW 6 9 30.27 1025 10 16 0.00 0.00
10:53 pm 22:53 Clear 41 5 28 -2.2 60 60 N 7 11 30.26 1025 10 16 0.00 0.00
11:53 pm 23:53 Clear 40 4.4 27 -2.8 60 60 N 8 13 30.27 1025 10 16 0.00 0.00

Powered by AerisWeather